Belize, Belize

5:07 PM CST on July 26, 2017 (GMT -0600)
Philip S W Goldson International

Weather History for MZBZ - March, 2013

Change the Weather History Date:

Friday, March 1, 2013

  Actual Average Record
Temperature  
Mean Temperature 74 °F -  
Max Temperature 76 °F 85 °F 91 °F (1998)
Min Temperature 71 °F 71 °F 66 °F (2016)
Cooling Degree Days 8    
Growing Degree Days 24 (Base 50)    
Moisture  
Dew Point 69 °F    
Average Humidity 84    
Maximum Humidity 94    
Minimum Humidity 75    
Precipitation  
Precipitation 0.00 in 0.08 in - ()
Sea Level Pressure  
Sea Level Pressure 29.95 in    
Wind  
Wind Speed 8 mph ()    
Max Wind Speed 12 mph    
Max Gust Speed -    
Visibility 8.0 miles    
Events Rain    
Averages and records for this station are not official NWS values.
T = Trace of Precipitation, MM = Missing Value Source: Averaged Metar Reports

Daily Weather History Graph

Daily Weather History Graph

Search for Another Location

Airport or City:

Trip Planner

Search our weather history database for the weather conditions in past years. The results will help you decide how hot, cold, wet, or windy it might be!

Date:

Astronomy

Mar. 01, 2013 Rise Set
Actual Time 6:11 AM CST 5:59 PM CST
Civil Twilight 5:49 AM CST 6:21 PM CST
Nautical Twilight 5:24 AM CST 6:46 PM CST
Astronomical Twilight 4:59 AM CST 7:12 PM CST
Moon 9:45 PM CST (3/1) 8:40 AM CST (3/1)
Length of Visible Light 12h 31m
Length of Day
11h 48m
Waning Gibbous, 83% of the Moon is Illuminated
Mar 1
Waning Gibbous
Mar 4
Last Quarter
Mar 11
New
Mar 19
First Quarter
Mar 27
Full

Hourly Weather History & Observations

Time (CST) Temp. Dew Point Humidity Pressure Visibility Wind Dir Wind Speed Gust Speed Precip Events Conditions
12:00 AM 76 °F 73 °F 89% 29.93 in 12 mi WNW 3.5 mph - -   Mostly Cloudy
3:00 AM 73 °F 70 °F 87% 29.90 in 12 mi NNW 11.5 mph - -   Mostly Cloudy
5:00 AM 71.6 °F 69.8 °F 94% 29.92 in 6.2 mi NW 9.2 mph - N/A   Mostly Cloudy
6:00 AM 72 °F 68 °F 84% 29.94 in 12 mi NNW 11.5 mph - -   Mostly Cloudy
6:00 AM 71.6 °F 68.0 °F 88% 29.92 in 6.2 mi NNW 11.5 mph - N/A   Mostly Cloudy
7:00 AM 71.6 °F 68.0 °F 88% 29.95 in 6.2 mi NNW 9.2 mph - N/A   Mostly Cloudy
8:00 AM 71.6 °F 68.0 °F 88% 29.98 in 6.2 mi NW 9.2 mph - N/A   Mostly Cloudy
9:00 AM 74 °F 69 °F 78% 30.00 in 11 mi NW 10.4 mph - - Rain Light Rain
9:00 AM 71.6 °F 68.0 °F 88% 29.99 in 6.2 mi NW 10.4 mph - N/A Rain Light Rain
10:00 AM 73.4 °F 68.0 °F 83% 30.00 in 6.2 mi NW 10.4 mph - N/A   Mostly Cloudy
11:00 AM 73.4 °F 68.0 °F 83% 29.99 in 6.2 mi WNW 11.5 mph - N/A   Mostly Cloudy
12:00 PM 74 °F 69 °F 80% 29.97 in 12 mi WNW 9.2 mph - -   Partly Cloudy
12:00 PM 75.2 °F 69.8 °F 83% 29.97 in 6.2 mi WNW 9.2 mph - N/A   Mostly Cloudy
1:00 PM 73.4 °F 69.8 °F 88% 29.95 in 2.5 mi NW 9.2 mph - N/A Rain Light Rain Showers
2:00 PM 73.4 °F 69.8 °F 88% 29.93 in 5.0 mi WNW 9.2 mph - N/A   Mostly Cloudy
3:00 PM 75 °F 69 °F 75% 29.91 in 12 mi NNW 9.2 mph - -   Overcast
3:00 PM 75.2 °F 68.0 °F 78% 29.90 in 6.2 mi NNW 9.2 mph - N/A   Mostly Cloudy
4:00 PM 75.2 °F 68.0 °F 78% 29.91 in 6.2 mi NW 6.9 mph - N/A Rain Light Rain Showers
5:00 PM 75.2 °F 69.8 °F 83% 29.92 in 6.2 mi WNW 4.6 mph - N/A   Mostly Cloudy
6:00 PM 74 °F 70 °F 85% 29.94 in 12 mi West 4.6 mph - -   Partly Cloudy
6:00 PM 75.2 °F 69.8 °F 83% 29.94 in 6.2 mi West 4.6 mph - N/A   Mostly Cloudy
9:00 PM 72 °F 69 °F 85% 30.02 in 12 mi NW 4.6 mph - - Rain Light Rain